Weather History for Sisseton, SD

Change the Weather History Date:

Tuesday, February 12, 2013

  Actual Average Record
Temperature  
Mean Temperature 24 °F 17 °F  
Max Temperature 31 °F 27 °F 51 °F (2005)
Min Temperature 17 °F 7 °F -26 °F (1955)
Degree Days  
Heating Degree Days 41 48  
Month to date heating degree days 584 594  
Since 1 July heating degree days 5536 5540  
Cooling Degree Days 0 0  
Month to date cooling degree days 0 0  
Year to date cooling degree days 0 0  
Moisture  
Dew Point 18 °F    
Average Humidity 73    
Maximum Humidity 84    
Minimum Humidity 62    
Precipitation  
Precipitation 0.02 in 0.01 in 0.30 in (1976)
Month to date precipitation 1.52 0.14  
Year to date precipitation 2.32 0.57  
Snow  
Snow 0.00 in - - ()
Month to date snowfall 18.8  
Since 1 July snowfall 35.0  
Snow Depth 0.00 in    
Sea Level Pressure  
Sea Level Pressure 29.91 in    
Wind  
Wind Speed 11 mph (WNW)    
Max Wind Speed 22 mph    
Max Gust Speed 31 mph    
T = Trace of Precipitation, MM = Missing Value Source: NWS Daily Summary

Daily Weather History Graph

Daily Weather History Graph

Search for Another Location

Airport:

Trip Planner

Search our weather history database for the weather conditions in past years. The results will help you decide how hot, cold, wet, or windy it might be!

Date:

Astronomy

Feb. 12, 2013 Rise Set
Actual Time 7:34 AM CST 5:50 PM CST
Civil Twilight 7:03 AM CST 6:21 PM CST
Nautical Twilight 6:28 AM CST 6:56 PM CST
Astronomical Twilight 5:54 AM CST 7:31 PM CST
Moon 8:21 AM CST (2/12) 9:05 PM CST (2/12)
Length of Visible Light 11h 18m
Length of Day
10h 16m
Waxing Crescent, 7% of the Moon is Illuminated
Feb 12
Waxing Crescent
Feb 17
First Quarter
Feb 25
Full
Mar 4
Last Quarter
Mar 11
New

Hourly Weather History & Observations

Time (CST) Temp. Windchill Dew Point Humidity Pressure Visibility Wind Dir Wind Speed Gust Speed Precip Events Conditions
12:56 AM 19.9 °F 8.6 °F 15.1 °F 81% 30.03 in - SW 10.4 mph - N/A   Unknown
1:56 AM 23.0 °F 8.0 °F 15.1 °F 72% 29.96 in - West 20.7 mph 31.1 mph 0.02 in   Unknown
2:07 AM 21.2 °F 7.3 °F 15.8 °F 80% 29.88 in - WSW 16.1 mph 24.2 mph N/A   Unknown
2:56 AM 21.0 °F 8.6 °F 14.0 °F 74% 29.96 in - SSW 12.7 mph - N/A   Unknown
3:56 AM 21.9 °F 7.3 °F 15.1 °F 75% 29.92 in - West 18.4 mph 21.9 mph N/A   Unknown
4:56 AM 24.1 °F 11.0 °F 16.0 °F 71% 29.91 in - West 16.1 mph - N/A   Unknown
5:56 AM 25.0 °F 12.6 °F 16.0 °F 69% 29.90 in - West 15.0 mph - N/A   Unknown
6:56 AM 25.0 °F 11.3 °F 15.1 °F 66% 29.90 in - West 18.4 mph - N/A   Unknown
7:56 AM 24.1 °F 11.0 °F 14.0 °F 65% 29.91 in - West 16.1 mph - N/A   Unknown
8:56 AM 25.0 °F 13.6 °F 15.1 °F 66% 29.91 in - West 12.7 mph - N/A   Unknown
9:56 AM 24.1 °F 16.0 °F 16.0 °F 71% 29.92 in - WNW 6.9 mph - N/A   Unknown
10:56 AM 25.0 °F 16.3 °F 17.1 °F 72% 29.93 in - NW 8.1 mph - N/A   Unknown
11:56 AM 27.0 °F 18.7 °F 18.0 °F 69% 29.93 in - West 8.1 mph - N/A   Unknown
12:56 PM 28.0 °F 18.1 °F 19.0 °F 69% 29.91 in - NW 11.5 mph - N/A   Unknown
1:56 PM 28.0 °F 18.6 °F 19.9 °F 72% 29.90 in - WNW 10.4 mph - N/A   Unknown
2:56 PM 28.9 °F 21.1 °F 21.0 °F 72% 29.89 in - NNW 8.1 mph - N/A   Unknown
3:56 PM 30.0 °F 26.5 °F 21.0 °F 69% 29.89 in - NW 3.5 mph - N/A   Unknown
4:56 PM 27.0 °F - 19.9 °F 75% 29.89 in - Calm Calm - N/A   Unknown
5:56 PM 25.0 °F 19.3 °F 19.0 °F 78% 29.89 in - West 4.6 mph - N/A   Unknown
6:56 PM 19.0 °F 11.1 °F 15.1 °F 85% 29.91 in - NNW 5.8 mph - N/A   Unknown
7:56 PM 26.1 °F 15.6 °F 19.9 °F 78% 29.90 in - WNW 11.5 mph - N/A   Unknown
8:56 PM 27.0 °F 16.7 °F 21.0 °F 78% 29.88 in - WNW 11.5 mph - N/A   Unknown
9:56 PM 28.0 °F 17.0 °F 21.0 °F 75% 29.88 in - NW 13.8 mph - N/A   Unknown
10:56 PM 28.0 °F 18.6 °F 21.9 °F 78% 29.86 in - WNW 10.4 mph - N/A   Unknown
11:56 PM 28.0 °F 19.3 °F 21.9 °F 78% 29.84 in - WNW 9.2 mph - N/A   Unknown